Regional Weather Roundup
Issued by NWS Charleston, SC

Current Version | Previous Version | Text Only | Print | Product List | Glossary Off
Versions: 1 2 3 4 5 6 7 8 9 10 11 12 13 14 15 16 17 18 19 20 21 22 23 24 25 26 27 28 29 30 31 32 33 34 35 36 37 38 39 40 41 42 43 44 45 46 47 48 49 50
000 ASUS42 KCHS 222310 RWRCHS REGIONAL WEATHER ROUNDUP NATIONAL WEATHER SERVICE CHARLESTON SC 600 PM EST MON DEC 22 2014 NOTE: "FAIR" INDICATES FEW OR NO CLOUDS BELOW 12,000 FEET WITH NO SIGNIFICANT WEATHER AND/OR OBSTRUCTIONS TO VISIBILITY. NOT ALL STATIONS ARE QUALITY CONTROLLED BY THE NATIONAL WEATHER SERVICE. USE DATA WITH CAUTION...ESPECIALLY DEWPOINT OBSERVATIONS. SCZ027-030-031-034>040-042>050-230000- ...SOUTHEAST SOUTH CAROLINA... CITY SKY/WX TMP DP RH WIND PRES REMARKS N CHARLESTON LGT RAIN 46 46 100 N8 30.00S WATERFRONT PRK NOT AVBL MOUNT PLEASANT LGT RAIN 48 48 100 N6 30.00S PINOPOLIS NOT AVBL MONCKS CORNER N/A 46 45 93 NE6 30.00F SUMMERVILLE CLOUDY 45 45 100 CALM 30.01S BEAUFORT MCAS LGT RAIN 49 47 93 N8 29.97S BEAUFORT ARPT CLOUDY 50 50 100 NE8 29.96R HILTON HEAD IS CLOUDY 52 52 100 N8 29.96R WALTERBORO CLOUDY 46 N/A N/A NE5 30.00S ALLENDALE CLOUDY 46 46 100 N5 29.98F ...SOUTHERN MIDLANDS AND PEE DEE... CITY SKY/WX TMP DP RH WIND PRES REMARKS GEORGETOWN NOT AVBL KINGSTREE NOT AVBL ORANGEBURG CLOUDY 45 42 89 NE8 30.01R BARNWELL CLOUDY 46 45 93 E9 29.97F AIKEN LGT RAIN 45 45 100 NE8 30.01F MANNING CLOUDY 45 N/A N/A N5 30.01F COLUMBIA LGT RAIN 45 42 89 E12 30.00F SUMTER LGT RAIN 43 42 96 NE10 30.00S FOG FLORENCE CLOUDY 43 41 93 NE8 30.03R FOG MYRTLE BEACH CLOUDY 46 43 87 N12 30.02R FOG N MYRTLE BEACH LGT RAIN 46 44 93 N6 30.01R $$ GAZ063-065-086>088-099>101-113>116-118-119-134>141-150-230000- ...SOUTHEAST GEORGIA... CITY SKY/WX TMP DP RH WIND PRES REMARKS SAVANNAH ARPT FOG 50 48 93 N7 29.96R VSB 3/4 HUNTER AAF MOCLDY 52 52 100 N9 29.93R FORT STEWART CLOUDY 52 51 96 N6 29.93R STATESBORO CLOUDY 47 47 100 NE3 29.96S SYLVANIA CLOUDY 47 47 100 NE7 29.97S FOG CLAXTON CLOUDY 48 48 100 CALM 29.95S FOG ...CSRA...CENTRAL AND FAR SOUTHEAST GEORGIA... CITY SKY/WX TMP DP RH WIND PRES REMARKS THOMSON CLOUDY 46 46 100 NE5 30.01F AUGUSTA-BUSH CLOUDY 47 45 93 E6 29.99F AUGUSTA-DANIEL CLOUDY 47 45 93 NE8 29.98R SWAINSBORO FOG N/A N/A N/A E5 29.95S VSB 1 VIDALIA CLOUDY 48 48 100 E6 29.95R FOG EASTMAN CLOUDY 50 50 100 E5 29.95S FOG HAZLEHURST FOG 53 53 100 E6 29.91S VSB 3/4 ALMA CLOUDY 54 53 97 E3 29.91S WAYCROSS LGT RAIN 57 56 99 E5 29.92S JESUP CLOUDY 55 54 94 CALM 29.94S BAXLEY FOG 54 54 100 NE7 29.91F VSB 1 BRUNSWICK CLOUDY 55 54 94 N5 29.93S SAINT SIMONS RAIN 57 55 93 NE7 29.91F $$ SCZ027-028-034-036>038-045-046-048>050-GAZ119-141-230000- ...LAKE AND SUPPLEMENTAL COASTAL OBSERVATIONS... STATION/POSITION TIME TEMP WIND PRES WAVE SWELL AIR SEA DIR/SP/G HT/PER HT/PER/DIR (UTC) (F) (DEG/KT/KT) (MB) (FT/S) (FT/S/D) UPR LAKE MARION NOT AVBL WINYAH BAY 2200 47 100/ 5 1014.0S LAKE MURRAY 2200 43 30/ 3/ 7 1015.6S ACE BASIN NERRS 2200 48 30/ 1 1015.0S FORT PULASKI 2300 54 55 20/ 5/ 6 1014.1F SAPELO ISLAND 2200 54 40/ 8 1013.0S $$ ANZ835-935-AMZ111-154-330-350-352-354-370-450-454-472-230000- ...C-MAN AND BUOY OBSERVATIONS... STATION/POSITION TIME TEMP WIND PRES WAVE SWELL AIR SEA DIR/SP/G HT/PER HT/PER/DIR (UTC) (F) (DEG/KT/KT) (MB) (FT/S) (FT/S/D) BUOY 41004 2300 62 73 50/ 14/ 16 1014.1F 4/ 8 3/ 8 BUOY 41008 2300 59 59 100/ 14/ 17 1012.4F 4/ 5 2/ 90/ 9 FOLLY BEACH CMAN 2200 51 90/ 7/ 8 1015.5R CAPERS NEARSHORE 2200 51 90/ 10/ 12 N/A FRIPP NEARSHORE NOT AVBL STATION/POSITION TIME TEMP WIND PRES WAVE SWELL AIR SEA DIR/SP/G HT/PER HT/PER/DIR (UTC) (F) (DEG/KT/KT) (MB) (FT/S) (FT/S/D) 5E ST. MARYS GA 2300 61 N/A 3/ 8 FRYING PAN BUOY 2300 56 68 50/ 10/ 12 1016.2S 4/ 8 3/ 90/ 8 BUOY 41025 2300 61 1014.1R 9/ 8 CAPE LOOKOUT NC 2200 51 320/ 8/ 10 1015.7R BUOY 41002 2203 73 72 240/ 8/ 10 1016.1R 4/ 6 3/160/ 6 BUOY 41010 2300 76 77 200/ 14/ 16 1014.9F 4/ 9 3/ 90/ 9 ST AUGUSTINE FL 2300 65 180/ 9/ 9 1013.2R $$

USA.gov is the U.S. government's official web portal to all federal, state and local government web resources and services.